一网星座-0130星 (ONEWEB-0130 )

导读 | 星芒AI

ONEWEB-0130 是 OneWeb 卫星互联网星座计划中的一颗低轨通信卫星。该卫星由 OneWeb 公司部署,旨在为全球提供高速、低延迟的互联网服务,特别是在偏远和网络覆盖不足的地区。它运行在约 1200 公里的近地轨道,采用先进的通信技术,支持 Ku 和 Ka 频段。ONEWEB-0130 是 OneWeb 扩展其全球卫星网络、实现数字包容性目标的重要组成部分。

基本信息
目录编号:
47276
目录名称:
ONEWEB-0130
国际标识:
2020-100U
轨道中心:
EARTH
卫星名称:
一网星座-0130星
卫星全名:
一网星座-0130星 (ONEWEB-0130 )
卫星状态:
在轨 (已飞行1765 天)
发射日期:
2020-12-18 UTC
国别 :
英国 (GB)
星等 :
--
轨道信息
数据来源 国际轨道数据
星历时间: 2025-10-18T03:58:04+0800
10小时前
查看轨道信息
半长轴: 7591.862km
偏心率: 0.0001757
轨道倾角: 87.896°
近地点辐角 103.880°
升交点赤经 38.791°
平近点角 256.252°
近地点: 1212.393km
远地点: 1215.061km
周期: 109.719分钟
每日圈数: 13.124428
详细信息
平衡模式:
三轴稳定
覆盖范围:
全球
运营商:
一网卫星公司
运营商所在国:
英国
制造商(研发单位):
一网卫星公司
制造商所在国:
英国
使用方式:
暂无
卫星简介
OneWeb卫星网络由648颗重约125公斤的微型卫星组成,运行在1200公里的轨道上。 每颗卫星都能够提供至少每秒8千兆位的吞吐量,以使用其高吞吐量的Ku频段有效载荷为家庭和移动平台提供互联网接入。该卫星仍在工作。
2D轨道图
3D轨道图
轨道高度分析图
轨道倾角分析图
轨道综合分析图
查看轨道综合分析图